Weather History for PHHI - May, 2012

Change the Weather History Date:

Sunday, May 27, 2012

  Actual Average Record
Temperature  
Mean Temperature 74 °F -  
Max Temperature 79 °F 78 °F 91 °F (2003)
Min Temperature 68 °F 64 °F 61 °F (2007)
Cooling Degree Days 8    
Growing Degree Days 24 (Base 50)    
Moisture  
Dew Point 65 °F    
Average Humidity 82    
Maximum Humidity 94    
Minimum Humidity 54    
Precipitation  
Precipitation 0.03 in - - ()
Sea Level Pressure  
Sea Level Pressure 30.06 in    
Wind  
Wind Speed 9 mph (ENE)    
Max Wind Speed 22 mph    
Max Gust Speed 28 mph    
Visibility 10 miles    
Events Rain    
Averages and records for this station are not official NWS values.
T = Trace of Precipitation, MM = Missing Value Source: NWS Daily Summary

Daily Weather History Graph

Daily Weather History Graph

Search for Another Location

Airport or City:

Trip Planner

Search our weather history database for the weather conditions in past years. The results will help you decide how hot, cold, wet, or windy it might be!

Date:

Astronomy

May. 27, 2012 Rise Set
Actual Time 5:49 AM HST 7:09 PM HST
Civil Twilight 5:25 AM HST 7:33 PM HST
Nautical Twilight 4:56 AM HST 8:02 PM HST
Astronomical Twilight 4:26 AM HST 8:32 PM HST
Moon 11:40 AM HST (5/27) No Moon Set
Length of Visible Light 14h 08m
Length of Day
13h 19m
Waxing Crescent, 40% of the Moon is Illuminated
May 27
Waxing Crescent
May 28
First Quarter
Jun 4
Full
Jun 11
Last Quarter
Jun 19
New

Hourly Weather History & Observations

Time (HST) Temp. Dew Point Humidity Pressure Visibility Wind Dir Wind Speed Gust Speed Precip Events Conditions
12:00 AM 68.0 °F 66.2 °F 94% 30.07 in 7.0 mi South 5.8 mph - N/A   Light Drizzle
12:30 AM 68.0 °F 66.2 °F 94% 30.06 in 10.0 mi South 6.9 mph - N/A   Overcast
12:31 AM 68.0 °F 66.2 °F 94% 30.06 in 10.0 mi South 6.9 mph - N/A   Light Drizzle
12:34 AM 68.0 °F 66.2 °F 94% 30.06 in 10.0 mi SE 8.1 mph - N/A   Light Drizzle
12:48 AM 68.0 °F 66.2 °F 94% 30.06 in 6.0 mi SSE 3.5 mph - N/A   Drizzle
12:55 AM 68.4 °F 65.8 °F 92% 30.06 in 6.0 mi SE 8.1 mph - 0.02 in   Light Drizzle
1:01 AM 68.0 °F 66.2 °F 94% 30.06 in 7.0 mi Variable 4.6 mph - N/A   Light Drizzle
1:06 AM 68.0 °F 66.2 °F 94% 30.05 in 6.0 mi Variable 3.5 mph - N/A   Light Drizzle
1:10 AM 68.0 °F 66.2 °F 94% 30.05 in 6.0 mi Variable 4.6 mph - N/A   Light Drizzle
1:25 AM 68.0 °F 64.4 °F 88% 30.05 in 10.0 mi ENE 9.2 mph - N/A   Light Drizzle
1:39 AM 68.0 °F 64.4 °F 88% 30.05 in 10.0 mi Variable 5.8 mph - N/A   Light Drizzle
1:55 AM 68.5 °F 65.1 °F 89% 30.04 in 10.0 mi ENE 5.8 mph - 0.00 in   Light Drizzle
1:59 AM 68.0 °F 64.4 °F 88% 30.04 in 10.0 mi East 5.8 mph - N/A   Clear
2:55 AM 68.9 °F 64.2 °F 85% 30.02 in 10.0 mi ENE 8.1 mph - 0.00 in   Clear
3:25 AM 69.8 °F 64.4 °F 83% 30.02 in 9.0 mi East 6.9 mph 18.4 mph N/A   Light Drizzle
3:43 AM 68.0 °F 64.4 °F 88% 30.01 in 10.0 mi ENE 10.4 mph - N/A   Clear
3:55 AM 68.7 °F 64.6 °F 87% 30.01 in 10.0 mi NE 12.7 mph - 0.01 in   Partly Cloudy
4:55 AM 68.4 °F 64.4 °F 87% 30.03 in 10.0 mi ENE 8.1 mph - N/A   Mostly Cloudy
5:00 AM 68.0 °F 64.4 °F 88% 30.03 in 10.0 mi ENE 9.2 mph - N/A   Mostly Cloudy
5:02 AM 68.0 °F 64.4 °F 88% 30.03 in 10.0 mi ENE 12.7 mph - N/A   Light Drizzle
5:05 AM 68.0 °F 64.4 °F 88% 30.03 in 9.0 mi NE 11.5 mph - N/A   Light Drizzle
5:07 AM 68.0 °F 64.4 °F 88% 30.03 in 9.0 mi NE 10.4 mph - N/A   Light Drizzle
5:08 AM 68.0 °F 64.4 °F 88% 30.03 in 9.0 mi NE 8.1 mph - N/A   Light Drizzle
5:11 AM 68.0 °F 64.4 °F 88% 30.03 in 10.0 mi NE 9.2 mph - N/A   Light Drizzle
5:13 AM 68.0 °F 64.4 °F 88% 30.04 in 10.0 mi NE 9.2 mph - N/A   Scattered Clouds
5:55 AM 68.2 °F 63.5 °F 85% 30.05 in 10.0 mi ENE 9.2 mph - 0.00 in   Scattered Clouds
5:57 AM 68.0 °F 62.6 °F 83% 30.05 in 10.0 mi ENE 9.2 mph - N/A   Light Drizzle
6:12 AM 68.0 °F 64.4 °F 88% 30.06 in 10.0 mi NE 5.8 mph - N/A   Scattered Clouds
6:55 AM 68.9 °F 62.8 °F 81% 30.07 in 10.0 mi Calm Calm - 0.00 in   Mostly Cloudy
6:59 AM 69.8 °F 62.6 °F 78% 30.07 in 10.0 mi NE 6.9 mph - N/A   Mostly Cloudy
7:08 AM 68.0 °F 64.4 °F 88% 30.07 in 10.0 mi Calm Calm - N/A   Mostly Cloudy
7:21 AM 68.0 °F 64.4 °F 88% 30.07 in 9.0 mi ENE 10.4 mph - N/A   Mostly Cloudy
7:22 AM 68.0 °F 64.4 °F 88% 30.07 in 9.0 mi ENE 10.4 mph - N/A   Mostly Cloudy
7:23 AM 68.0 °F 64.4 °F 88% 30.07 in 9.0 mi ENE 10.4 mph - N/A   Light Drizzle
7:31 AM 69.8 °F 64.4 °F 83% 30.08 in 10.0 mi ENE 6.9 mph - N/A   Scattered Clouds
7:55 AM 70.2 °F 64.9 °F 83% 30.08 in 10.0 mi ENE 4.6 mph - 0.00 in   Mostly Cloudy
8:10 AM 69.8 °F 64.4 °F 83% 30.09 in 10.0 mi East 5.8 mph - N/A   Mostly Cloudy
8:22 AM 69.8 °F 64.4 °F 83% 30.09 in 10.0 mi East 4.6 mph - N/A   Mostly Cloudy
8:29 AM 69.8 °F 64.4 °F 83% 30.09 in 10.0 mi NE 3.5 mph - N/A   Mostly Cloudy
8:33 AM 71.6 °F 64.4 °F 78% 30.09 in 10.0 mi Variable 3.5 mph - N/A   Mostly Cloudy
8:55 AM 71.2 °F 65.5 °F 82% 30.09 in 10.0 mi NE 9.2 mph - N/A   Mostly Cloudy
9:27 AM 71.6 °F 64.4 °F 78% 30.09 in 10.0 mi ENE 15.0 mph - N/A   Mostly Cloudy
9:29 AM 71.6 °F 64.4 °F 78% 30.09 in 10.0 mi NE 12.7 mph - N/A   Mostly Cloudy
9:30 AM 71.6 °F 64.4 °F 78% 30.09 in 10.0 mi ENE 11.5 mph - N/A   Mostly Cloudy
9:40 AM 71.6 °F 64.4 °F 78% 30.09 in 10.0 mi ENE 8.1 mph - N/A   Light Drizzle
9:52 AM 71.6 °F 64.4 °F 78% 30.09 in 10.0 mi East 12.7 mph - N/A   Mostly Cloudy
9:53 AM 73.4 °F 64.4 °F 73% 30.09 in 10.0 mi East 12.7 mph - N/A   Mostly Cloudy
9:55 AM 72.9 °F 64.0 °F 74% 30.09 in 10.0 mi ENE 13.8 mph - 0.00 in   Mostly Cloudy
10:48 AM 75.2 °F 64.4 °F 69% 30.09 in 10.0 mi ENE 17.3 mph 21.9 mph N/A   Mostly Cloudy
10:49 AM 75.2 °F 64.4 °F 69% 30.09 in 10.0 mi ENE 18.4 mph 21.9 mph N/A   Light Drizzle
10:55 AM 73.9 °F 63.7 °F 70% 30.09 in 10.0 mi ENE 18.4 mph 25.3 mph 0.00 in   Light Drizzle
10:56 AM 73.4 °F 64.4 °F 73% 30.09 in 10.0 mi ENE 18.4 mph 25.3 mph N/A   Mostly Cloudy
10:57 AM 73.4 °F 62.6 °F 69% 30.09 in 10.0 mi ENE 18.4 mph 25.3 mph N/A   Mostly Cloudy
10:59 AM 75.2 °F 62.6 °F 65% 30.09 in 10.0 mi ENE 17.3 mph 25.3 mph N/A   Mostly Cloudy
11:55 AM 78.3 °F 61.7 °F 57% 30.08 in 10.0 mi ENE 21.9 mph 26.5 mph N/A   Partly Cloudy
12:55 PM 79.3 °F 61.9 °F 55% 30.07 in 10.0 mi ENE 20.7 mph 26.5 mph N/A   Mostly Cloudy
1:55 PM 79.2 °F 61.3 °F 54% 30.06 in 10.0 mi East 16.1 mph 24.2 mph N/A   Scattered Clouds
2:55 PM 78.6 °F 62.6 °F 58% 30.05 in 10.0 mi ENE 18.4 mph 27.6 mph N/A   Partly Cloudy
3:55 PM 77.2 °F 63.9 °F 63% 30.04 in 10.0 mi ENE 13.8 mph - N/A   Clear
4:04 PM 77.0 °F 66.2 °F 69% 30.04 in 7.0 mi ENE 13.8 mph 20.7 mph N/A Rain Light Rain
4:12 PM 73.4 °F 66.2 °F 78% 30.05 in 7.0 mi East 18.4 mph 25.3 mph N/A Rain Light Rain
4:16 PM 73.4 °F 66.2 °F 78% 30.05 in 10.0 mi ENE 17.3 mph 25.3 mph N/A   Mostly Cloudy
4:23 PM 73.4 °F 64.4 °F 73% 30.05 in 10.0 mi ENE 15.0 mph - N/A   Mostly Cloudy
4:32 PM 75.2 °F 66.2 °F 73% 30.04 in 10.0 mi ENE 11.5 mph - N/A   Mostly Cloudy
4:33 PM 75.2 °F 66.2 °F 73% 30.04 in 10.0 mi ENE 12.7 mph - N/A   Mostly Cloudy
4:38 PM 73.4 °F 66.2 °F 78% 30.04 in 10.0 mi ENE 16.1 mph - N/A   Light Drizzle
4:40 PM 73.4 °F 66.2 °F 78% 30.04 in 10.0 mi ENE 15.0 mph - N/A   Light Drizzle
4:55 PM 72.3 °F 66.2 °F 81% 30.05 in 8.0 mi ENE 15.0 mph - 0.00 in   Light Drizzle
5:03 PM 71.6 °F 66.2 °F 83% 30.05 in 10.0 mi ENE 12.7 mph - N/A   Scattered Clouds
5:07 PM 71.6 °F 64.4 °F 78% 30.05 in 10.0 mi ENE 12.7 mph - N/A   Light Drizzle
5:13 PM 71.6 °F 66.2 °F 83% 30.05 in 9.0 mi ENE 10.4 mph - N/A   Light Drizzle
5:16 PM 71.6 °F 66.2 °F 83% 30.05 in 9.0 mi ENE 10.4 mph - N/A   Light Drizzle
5:20 PM 71.6 °F 66.2 °F 83% 30.05 in 10.0 mi East 8.1 mph - N/A   Light Drizzle
5:42 PM 71.6 °F 66.2 °F 83% 30.05 in 10.0 mi NE 6.9 mph - N/A   Light Drizzle
5:43 PM 71.6 °F 66.2 °F 83% 30.05 in 10.0 mi NE 6.9 mph - N/A   Mostly Cloudy
5:46 PM 71.6 °F 66.2 °F 83% 30.05 in 10.0 mi NE 6.9 mph - N/A   Mostly Cloudy
5:47 PM 71.6 °F 66.2 °F 83% 30.05 in 10.0 mi NE 6.9 mph - N/A   Light Drizzle
5:53 PM 71.6 °F 66.2 °F 83% 30.05 in 7.0 mi East 5.8 mph - N/A Rain Light Rain
5:54 PM 71.6 °F 66.2 °F 83% 30.05 in 7.0 mi East 6.9 mph - N/A Rain Light Rain
5:55 PM 71.2 °F 66.7 °F 86% 30.06 in 7.0 mi East 8.1 mph - 0.00 in Rain Light Rain
5:56 PM 71.6 °F 66.2 °F 83% 30.06 in 7.0 mi East 9.2 mph - N/A Rain Light Rain
6:04 PM 71.6 °F 66.2 °F 83% 30.05 in 9.0 mi East 17.3 mph 21.9 mph N/A   Mostly Cloudy
6:05 PM 71.6 °F 66.2 °F 83% 30.06 in 9.0 mi East 15.0 mph 21.9 mph N/A   Light Drizzle
6:13 PM 69.8 °F 66.2 °F 88% 30.06 in 10.0 mi East 13.8 mph 21.9 mph N/A   Overcast
6:14 PM 69.8 °F 66.2 °F 88% 30.06 in 10.0 mi East 12.7 mph - N/A   Overcast
6:19 PM 69.8 °F 66.2 °F 88% 30.06 in 10.0 mi ENE 11.5 mph - N/A   Overcast
6:20 PM 69.8 °F 66.2 °F 88% 30.06 in 10.0 mi East 11.5 mph - N/A   Overcast
6:26 PM 69.8 °F 64.4 °F 83% 30.06 in 8.0 mi ENE 12.7 mph - N/A Rain Light Rain
6:32 PM 69.8 °F 66.2 °F 88% 30.06 in 7.0 mi ENE 8.1 mph - N/A Rain Light Rain
6:38 PM 69.8 °F 66.2 °F 88% 30.06 in 10.0 mi ENE 9.2 mph - N/A   Overcast
6:39 PM 69.8 °F 66.2 °F 88% 30.06 in 10.0 mi ENE 10.4 mph - N/A   Light Drizzle
6:40 PM 69.8 °F 66.2 °F 88% 30.06 in 10.0 mi ENE 10.4 mph - N/A   Light Drizzle
6:45 PM 69.8 °F 66.2 °F 88% 30.07 in 10.0 mi ENE 10.4 mph - N/A   Light Drizzle
6:46 PM 69.8 °F 66.2 °F 88% 30.06 in 10.0 mi ENE 12.7 mph - N/A   Light Drizzle
6:47 PM 69.8 °F 66.2 °F 88% 30.06 in 10.0 mi ENE 12.7 mph 18.4 mph N/A   Light Drizzle
6:48 PM 69.8 °F 66.2 °F 88% 30.06 in 10.0 mi ENE 12.7 mph 18.4 mph N/A   Light Drizzle
6:52 PM 69.8 °F 64.4 °F 83% 30.07 in 10.0 mi NNE 3.5 mph 18.4 mph N/A   Overcast
6:53 PM 69.8 °F 64.4 °F 83% 30.07 in 10.0 mi Calm Calm 18.4 mph N/A   Overcast
6:55 PM 69.6 °F 65.3 °F 86% 30.07 in 10.0 mi NE 4.6 mph 18.4 mph 0.00 in   Overcast
6:56 PM 69.8 °F 66.2 °F 88% 30.07 in 10.0 mi NNE 6.9 mph 18.4 mph N/A   Light Drizzle
6:57 PM 69.8 °F 64.4 °F 83% 30.07 in 10.0 mi Variable 5.8 mph - N/A   Light Drizzle
6:59 PM 69.8 °F 64.4 °F 83% 30.07 in 10.0 mi North 4.6 mph - N/A   Light Drizzle
7:02 PM 69.8 °F 64.4 °F 83% 30.07 in 10.0 mi Variable 5.8 mph - N/A   Light Drizzle
7:03 PM 69.8 °F 64.4 °F 83% 30.07 in 10.0 mi East 5.8 mph - N/A   Light Drizzle
7:05 PM 69.8 °F 64.4 °F 83% 30.07 in 10.0 mi Variable 6.9 mph - N/A   Light Drizzle
7:07 PM 69.8 °F 64.4 °F 83% 30.07 in 10.0 mi ENE 8.1 mph - N/A   Overcast
7:08 PM 69.8 °F 64.4 °F 83% 30.07 in 10.0 mi ENE 6.9 mph - N/A   Overcast
7:10 PM 69.8 °F 64.4 °F 83% 30.07 in 10.0 mi ENE 5.8 mph - N/A   Overcast
7:12 PM 69.8 °F 64.4 °F 83% 30.07 in 10.0 mi ENE 8.1 mph - N/A   Overcast
7:13 PM 69.8 °F 64.4 °F 83% 30.07 in 10.0 mi Variable 6.9 mph - N/A   Mostly Cloudy
7:40 PM 69.8 °F 64.4 °F 83% 30.07 in 10.0 mi ENE 9.2 mph - N/A   Mostly Cloudy
7:54 PM 71.6 °F 64.4 °F 78% 30.08 in 10.0 mi East 8.1 mph - N/A   Light Drizzle
7:55 PM 70.7 °F 63.7 °F 78% 30.08 in 10.0 mi East 6.9 mph - 0.00 in   Light Drizzle
8:03 PM 69.8 °F 64.4 °F 83% 30.08 in 10.0 mi ENE 4.6 mph - N/A   Mostly Cloudy
8:10 PM 69.8 °F 64.4 °F 83% 30.08 in 10.0 mi East 8.1 mph - N/A   Light Drizzle
8:18 PM 69.8 °F 64.4 °F 83% 30.09 in 10.0 mi Variable 5.8 mph - N/A   Light Drizzle
8:19 PM 69.8 °F 64.4 °F 83% 30.08 in 10.0 mi Variable 5.8 mph - N/A   Overcast
8:51 PM 69.8 °F 64.4 °F 83% 30.09 in 10.0 mi East 4.6 mph - N/A   Overcast
8:55 PM 70.2 °F 63.9 °F 80% 30.09 in 10.0 mi Calm Calm - 0.00 in   Overcast
8:59 PM 69.8 °F 64.4 °F 83% 30.09 in 10.0 mi ESE 3.5 mph - N/A   Overcast
9:06 PM 69.8 °F 62.6 °F 78% 30.09 in 10.0 mi Calm Calm - N/A   Overcast
9:48 PM 71.6 °F 62.6 °F 73% 30.09 in 10.0 mi Variable 3.5 mph - N/A   Overcast
9:55 PM 70.9 °F 63.1 °F 76% 30.09 in 10.0 mi SE 6.9 mph - N/A   Overcast
10:03 PM 71.6 °F 62.6 °F 73% 30.09 in 10.0 mi ESE 9.2 mph - N/A   Overcast
10:54 PM 71.6 °F 60.8 °F 69% 30.09 in 10.0 mi ESE 8.1 mph - N/A   Mostly Cloudy
10:55 PM 71.2 °F 61.2 °F 70% 30.09 in 10.0 mi ESE 8.1 mph - N/A   Mostly Cloudy
11:33 PM 71.6 °F 60.8 °F 69% 30.08 in 10.0 mi East 6.9 mph - N/A   Mostly Cloudy
11:40 PM 71.6 °F 60.8 °F 69% 30.08 in 10.0 mi ENE 9.2 mph - N/A   Mostly Cloudy
11:55 PM 71.2 °F 60.8 °F 69% 30.07 in 10.0 mi East 16.1 mph 20.7 mph N/A   Mostly Cloudy